FW3224 Weather Reports


time (UTC)temp
C
wind
direction
speed
KPH
gust
KPH
rain 1hr
cm
rain 24hr
cm
rain mn
cm
humidity
%
barometer
mb
20260901161031 17 292 8.0 17.7 0.00 0.03 0.00 64 1017.0
20260901160528 17 280 8.0 17.7 0.00 0.03 0.00 64 1017.1
20260901160031 17 238 9.7 17.7 0.00 0.03 0.00 64 1017.2
20260901155528 17 294 6.4 17.7 0.00 0.03 0.00 64 1017.2
20260901155030 17 307 8.0 17.7 0.00 0.03 0.00 65 1017.4
20260901154527 17 242 6.4 16.1 0.00 0.03 0.00 65 1017.4
20260901154026 17 257 4.8 16.1 0.00 0.03 0.00 66 1017.5
20260901153525 16 284 8.0 16.1 0.00 0.03 0.00 67 1017.6
20260901153031 16 267 4.8 14.5 0.00 0.03 0.00 68 1017.8
20260901152522 16 292 4.8 11.3 0.00 0.03 0.00 69 1017.9
20260901152022 16 277 3.2 8.0 0.00 0.03 0.00 70 1018.0
20260901151521 15 242 1.6 9.7 0.00 0.03 0.00 70 1018.0
20260901151021 15 271 1.6 4.8 0.00 0.03 0.00 71 1018.1
20260901150519 15 327 0.0 4.8 0.00 0.03 0.00 71 1018.2
20260901150019 15 294 0.0 4.8 0.00 0.03 0.00 71 1018.2
20260901145519 15 294 0.0 3.2 0.00 0.03 0.00 70 1018.2
20260901145018 15 293 0.0 0.0 0.00 0.03 0.00 70 1018.2
20260901144519 16 293 0.0 0.0 0.00 0.03 0.00 69 1018.2
20260901144014 16 293 0.0 0.0 0.00 0.03 0.00 68 1018.2
20260901143513 16 293 0.0 3.2 0.00 0.03 0.00 66 1018.2
20260901143011 16 293 0.0 4.8 0.00 0.03 0.00 65 1018.1
20260901142510 17 293 1.6 8.0 0.00 0.03 0.00 64 1018.1
20260901142009 17 294 0.0 8.0 0.00 0.03 0.00 64 1018.1
20260901141508 17 308 1.6 6.4 0.00 0.03 0.00 63 1018.1
20260901141007 17 296 3.2 8.0 0.00 0.03 0.00 62 1018.0
20260901140506 17 290 1.6 8.0 0.00 0.03 0.00 61 1018.1
20260901140006 17 304 1.6 8.0 0.00 0.03 0.00 61 1018.1
20260901135504 18 259 3.2 12.9 0.00 0.03 0.03 61 1018.2
20260901135004 18 269 1.6 12.9 0.00 0.03 0.03 60 1018.3
20260901134503 18 304 1.6 11.3 0.00 0.03 0.03 60 1018.5
20260901134002 18 245 3.2 12.9 0.00 0.03 0.03 60 1018.5
20260901133502 18 265 3.2 14.5 0.00 0.03 0.03 60 1018.5
20260901133003 18 288 4.8 14.5 0.00 0.03 0.03 59 1018.5
20260901132503 18 253 4.8 17.7 0.00 0.03 0.03 59 1018.6
20260901132002 18 278 4.8 17.7 0.00 0.03 0.03 59 1018.5
20260901131500 18 280 6.4 16.1 0.00 0.03 0.03 58 1018.5
20260901131100 18 250 4.8 17.7 0.00 0.03 0.03 58 1018.6
20260901130600 18 287 9.7 19.3 0.00 0.03 0.03 58 1018.7
20260901130059 18 243 4.8 19.3 0.00 0.03 0.03 58 1018.8
20260901125602 18 284 4.8 14.5 0.00 0.03 0.03 58 1018.9
20260901125101 19 267 4.8 20.9 0.00 0.03 0.03 57 1019.0
20260901124557 19 251 11.3 22.5 0.00 0.03 0.03 57 1019.2
20260901124059 19 247 9.7 22.5 0.00 0.03 0.03 57 1019.2
20260901123557 18 277 9.7 22.5 0.00 0.03 0.03 57 1019.4
20260901123057 18 254 11.3 22.5 0.00 0.03 0.03 57 1019.5
20260901122557 18 297 11.3 22.5 0.00 0.03 0.03 57 1019.5
20260901122056 18 269 8.0 22.5 0.00 0.03 0.03 57 1019.5
20260901121556 19 268 9.7 24.1 0.00 0.03 0.03 57 1019.6
20260901121056 19 300 9.7 24.1 0.00 0.03 0.03 57 1019.7
20260901120558 19 286 9.7 19.3 0.00 0.03 0.03 57 1019.7
20260901120057 19 260 9.7 20.9 0.00 0.03 0.03 57 1019.7
20260901115555 19 295 9.7 20.9 0.00 0.03 0.03 57 1019.8
20260901115055 19 286 11.3 24.1 0.00 0.03 0.03 57 1019.8
20260901114556 19 281 12.9 24.1 0.00 0.03 0.03 57 1019.9
20260901114055 19 305 9.7 20.9 0.00 0.03 0.03 57 1019.9
20260901113559 19 238 12.9 20.9 0.00 0.03 0.03 57 1019.8
20260901113056 19 267 9.7 20.9 0.00 0.03 0.03 57 1019.8
20260901112554 19 279 11.3 17.7 0.00 0.03 0.03 57 1019.8
20260901112055 19 265 9.7 17.7 0.00 0.03 0.03 57 1019.8
20260901111555 19 257 6.4 16.1 0.00 0.03 0.03 57 1019.9
20260901111055 19 267 8.0 19.3 0.00 0.03 0.03 57 1019.8
20260901110554 19 263 8.0 19.3 0.00 0.03 0.03 57 1019.9
20260901110058 19 275 8.0 17.7 0.00 0.03 0.03 57 1019.9
20260901105554 19 268 9.7 17.7 0.00 0.03 0.03 57 1019.9
20260901105056 18 262 8.0 14.5 0.00 0.03 0.03 58 1019.9
20260901104556 18 265 4.8 12.9 0.00 0.03 0.03 58 1019.9
20260901104054 18 269 4.8 12.9 0.00 0.03 0.03 57 1019.9
20260901103552 19 246 4.8 11.3 0.00 0.03 0.03 57 1019.8
20260901103053 19 264 3.2 14.5 0.00 0.03 0.03 57 1019.8
20260901102553 19 248 4.8 14.5 0.00 0.03 0.03 57 1019.7
20260901102053 19 277 4.8 12.9 0.00 0.03 0.03 57 1019.8
20260901101556 19 244 6.4 12.9 0.00 0.03 0.03 57 1019.8
20260901101052 19 239 4.8 12.9 0.00 0.03 0.03 56 1019.8
20260901100552 20 271 4.8 11.3 0.00 0.03 0.03 56 1019.9
20260901100053 20 268 4.8 11.3 0.00 0.03 0.03 55 1020.0
20260901095552 20 281 4.8 8.0 0.00 0.03 0.03 55 1020.0
20260901095051 20 273 3.2 8.0 0.00 0.03 0.03 55 1020.0
20260901094552 20 269 3.2 11.3 0.00 0.03 0.03 55 1020.0
20260901094052 20 290 3.2 11.3 0.00 0.03 0.03 55 1020.0
20260901093550 20 271 4.8 12.9 0.00 0.03 0.03 54 1020.0
20260901093054 20 283 4.8 12.9 0.00 0.03 0.03 54 1019.9
20260901092551 20 300 4.8 12.9 0.00 0.03 0.03 54 1019.9
20260901092053 20 279 3.2 12.9 0.00 0.03 0.03 54 1019.9
20260901091554 20 283 4.8 12.9 0.00 0.03 0.03 53 1019.9
20260901091053 20 290 3.2 12.9 0.00 0.03 0.03 53 1019.8
20260901090549 20 244 3.2 11.3 0.00 0.03 0.03 53 1019.8
20260901090049 20 231 4.8 16.1 0.00 0.03 0.03 53 1019.8
20260901085550 20 291 4.8 16.1 0.00 0.03 0.03 52 1019.8
20260901085049 21 281 6.4 19.3 0.00 0.03 0.03 52 1019.7
20260901084549 21 275 6.4 16.1 0.00 0.03 0.03 52 1019.8
20260901084049 21 287 8.0 17.7 0.00 0.03 0.03 52 1019.7
20260901083549 21 278 4.8 16.1 0.00 0.03 0.03 51 1019.7
20260901083049 21 279 4.8 16.1 0.00 0.03 0.03 51 1019.7
20260901082548 21 303 6.4 16.1 0.00 0.03 0.03 50 1019.7
20260901082048 21 289 3.2 16.1 0.00 0.03 0.03 50 1019.6
20260901081553 21 254 4.8 14.5 0.00 0.03 0.03 50 1019.6
20260901081048 21 286 6.4 14.5 0.00 0.03 0.03 49 1019.6
20260901080551 21 276 6.4 14.5 0.00 0.03 0.03 49 1019.5
20260901080047 21 281 6.4 14.5 0.00 0.03 0.03 49 1019.4
20260901075548 22 324 6.4 17.7 0.00 0.03 0.03 48 1019.3
20260901075047 22 293 8.0 22.5 0.00 0.03 0.03 48 1019.3
20260901074547 22 256 6.4 22.5 0.00 0.03 0.03 47 1019.2
20260901074046 22 250 6.4 22.5 0.00 0.03 0.03 47 1019.2
20260901073546 22 263 11.3 19.3 0.00 0.03 0.03 47 1019.1
20260901073047 22 236 8.0 20.9 0.00 0.03 0.03 47 1019.1
20260901072546 22 285 8.0 20.9 0.00 0.03 0.03 46 1019.0
20260901072045 23 253 11.3 19.3 0.00 0.03 0.03 46 1019.1
20260901071546 23 259 9.7 19.3 0.00 0.03 0.03 46 1019.1
20260901071045 23 266 6.4 14.5 0.00 0.03 0.03 45 1019.1
20260901070545 23 278 3.2 17.7 0.00 0.03 0.03 45 1019.1
20260901070045 23 256 4.8 17.7 0.00 0.03 0.03 44 1019.1
20260901065545 23 261 4.8 17.7 0.00 0.03 0.03 43 1019.1
20260901065045 23 304 6.4 17.7 0.00 0.03 0.03 41 1019.0
20260901064544 23 256 6.4 30.6 0.00 0.03 0.03 41 1019.0
20260901064045 23 244 12.9 30.6 0.00 0.03 0.03 41 1019.1
20260901063543 23 260 9.7 27.4 0.00 0.03 0.03 41 1019.1
20260901063044 24 294 12.9 27.4 0.00 0.03 0.03 41 1019.1
20260901062545 24 234 11.3 22.5 0.00 0.03 0.03 41 1019.1
20260901062043 24 270 9.7 22.5 0.00 0.03 0.03 40 1019.1
20260901061543 24 219 11.3 19.3 0.00 0.03 0.03 40 1019.0
20260901061044 24 290 8.0 29.0 0.00 0.03 0.03 39 1019.1
20260901060543 24 279 12.9 29.0 0.00 0.03 0.03 39 1019.0
20260901060041 24 284 11.3 25.7 0.00 0.03 0.03 39 1019.1
20260901055541 24 250 14.5 27.4 0.00 0.03 0.03 39 1019.2
20260901055041 24 242 16.1 35.4 0.00 0.03 0.03 38 1019.3
20260901054544 24 261 16.1 33.8 0.00 0.03 0.03 38 1019.3
20260901054042 24 226 14.5 35.4 0.00 0.03 0.03 37 1019.4
20260901053543 24 298 19.3 35.4 0.00 0.03 0.03 37 1019.4
20260901053104 24 259 12.9 33.8 0.00 0.03 0.03 38 1019.4
20260901052544 24 268 17.7 30.6 0.00 0.03 0.03 38 1019.4
20260901052039 24 237 14.5 32.2 0.00 0.03 0.03 38 1019.4
20260901051559 24 235 17.7 32.2 0.00 0.03 0.03 37 1019.4
20260901051041 24 265 14.5 30.6 0.00 0.03 0.03 38 1019.4
20260901050538 24 336 11.3 22.5 0.00 0.03 0.03 39 1019.5
20260901050037 24 282 14.5 30.6 0.00 0.03 0.03 39 1019.6
20260901045537 24 253 11.3 25.7 0.00 0.03 0.03 39 1019.6
20260901045036 24 284 16.1 33.8 0.00 0.03 0.03 38 1019.6
20260901044548 24 294 19.3 33.8 0.00 0.03 0.03 38 1019.6
20260901044035 24 245 12.9 29.0 0.00 0.03 0.03 39 1019.6
20260901043536 23 280 16.1 37.0 0.00 0.03 0.03 39 1019.6
20260901043034 23 258 20.9 37.0 0.00 0.03 0.03 39 1019.8
20260901042532 24 255 17.7 30.6 0.00 0.03 0.03 38 1019.8
20260901042032 24 309 14.5 27.4 0.00 0.03 0.03 39 1019.8
20260901041533 24 285 14.5 27.4 0.00 0.03 0.03 40 1019.9
20260901041030 24 273 11.3 30.6 0.00 0.03 0.03 40 1019.9
20260901040530 24 259 14.5 30.6 0.00 0.03 0.03 40 1020.0
20260901040028 23 254 11.3 24.1 0.00 0.03 0.03 41 1020.1
20260901035531 23 304 11.3 27.4 0.00 0.03 0.03 40 1020.1
20260901035026 23 275 14.5 29.0 0.00 0.03 0.03 40 1020.2
20260901034529 23 250 16.1 29.0 0.00 0.03 0.03 40 1020.3
20260901034024 23 250 12.9 25.7 0.00 0.03 0.03 41 1020.3
20260901033523 23 227 12.9 25.7 0.00 0.03 0.03 41 1020.4
20260901033027 23 256 11.3 25.7 0.00 0.03 0.03 41 1020.6
20260901032521 23 269 11.3 25.7 0.00 0.03 0.03 41 1020.6
20260901032023 23 260 11.3 25.7 0.00 0.03 0.03 43 1020.8
20260901031523 23 297 11.3 25.7 0.00 0.03 0.03 43 1020.9
20260901031020 23 283 14.5 25.7 0.00 0.03 0.03 43 1020.9
20260901030517 23 245 16.1 24.1 0.00 0.03 0.03 43 1021.1
20260901030015 23 262 14.5 24.1 0.00 0.03 0.03 45 1021.3
20260901025513 23 280 11.3 24.1 0.00 0.03 0.03 46 1021.3
20260901025013 23 222 12.9 24.1 0.00 0.03 0.03 46 1021.4
20260901024511 22 272 9.7 27.4 0.00 0.03 0.03 47 1021.6
20260901024009 22 284 16.1 25.7 0.00 0.03 0.03 46 1021.7
20260901023508 22 251 12.9 25.7 0.00 0.03 0.03 46 1021.7
20260901023011 22 254 14.5 29.0 0.00 0.03 0.03 46 1021.9
20260901022506 22 276 14.5 29.0 0.00 0.03 0.03 46 1022.0
20260901022005 22 228 9.7 22.5 0.00 0.03 0.03 47 1022.1
20260901021510 22 275 11.3 32.2 0.00 0.03 0.03 48 1022.2
20260901021004 22 292 14.5 32.2 0.00 0.03 0.03 47 1022.4
20260901020503 22 277 8.0 27.4 0.00 0.03 0.03 49 1022.6
20260901020101 22 276 12.9 32.2 0.00 0.03 0.03 49 1022.7
20260901015558 22 284 14.5 32.2 0.00 0.03 0.03 49 1022.8
20260901015057 21 285 16.1 27.4 0.00 0.03 0.03 49 1023.0
20260901014559 22 251 12.9 24.1 0.00 0.03 0.03 50 1023.1
20260901014054 22 273 12.9 22.5 0.00 0.03 0.03 50 1023.3
20260901013553 22 289 8.0 24.1 0.00 0.03 0.03 53 1023.4
20260901013052 21 245 12.9 24.1 0.00 0.03 0.03 52 1023.6
20260901012554 21 281 8.0 19.3 0.00 0.03 0.03 52 1023.8
20260901012049 21 286 6.4 22.5 0.00 0.03 0.03 53 1023.9
20260901011547 21 263 9.7 22.5 0.00 0.03 0.03 53 1024.0
20260901011046 21 304 9.7 20.9 0.00 0.03 0.03 53 1024.1
20260901010545 21 215 9.7 24.1 0.00 0.03 0.03 53 1024.2
20260901010043 21 234 9.7 24.1 0.00 0.03 0.03 53 1024.3
20260901005542 20 307 8.0 20.9 0.00 0.03 0.03 54 1024.5
20260901005041 20 269 11.3 20.9 0.00 0.03 0.03 56 1024.6
20260901004539 20 293 11.3 20.9 0.00 0.03 0.03 58 1024.6
20260901004038 20 238 11.3 17.7 0.00 0.03 0.03 60 1024.7
20260901003537 19 282 6.4 17.7 0.00 0.03 0.03 61 1024.8
20260901003037 19 263 8.0 17.7 0.00 0.03 0.03 63 1024.9
20260901002537 18 281 6.4 19.3 0.00 0.03 0.03 63 1024.9
20260901002036 18 290 8.0 19.3 0.00 0.03 0.03 63 1025.0
20260901001532 18 282 4.8 16.1 0.00 0.03 0.03 64 1025.1
20260901001031 18 339 6.4 16.1 0.00 0.03 0.03 65 1025.1
20260901000529 18 277 4.8 14.5 0.00 0.03 0.03 66 1025.1
20260901000027 18 319 6.4 16.1 0.00 0.03 0.03 66 1025.2
20260831235527 17 318 9.7 16.1 0.00 0.03 0.03 67 1025.2
20260831235026 17 275 4.8 14.5 0.00 0.03 0.03 70 1025.3
20260831234523 17 250 4.8 16.1 0.00 0.03 0.03 71 1025.4
20260831234024 17 298 4.8 17.7 0.00 0.03 0.03 72 1025.4
20260831233521 16 277 6.4 14.5 0.00 0.03 0.03 75 1025.6
20260831233021 16 258 4.8 12.9 0.00 0.03 0.03 78 1025.6
20260831232520 15 316 4.8 12.9 0.00 0.03 0.03 78 1025.8
20260831232019 15 302 6.4 14.5 0.00 0.03 0.03 79 1025.9
20260831231516 15 321 4.8 9.7 0.00 0.03 0.03 80 1025.9
20260831231015 15 263 4.8 14.5 0.00 0.03 0.03 80 1026.0
20260831230514 14 278 6.4 14.5 0.00 0.03 0.03 81 1026.1
20260831230012 14 309 6.4 12.9 0.00 0.03 0.03 82 1026.2
20260831225512 14 299 4.8 16.1 0.00 0.03 0.03 82 1026.2
20260831225009 13 317 6.4 14.5 0.00 0.03 0.03 83 1026.3
20260831224508 13 283 8.0 12.9 0.00 0.03 0.03 83 1026.3
20260831224008 13 298 6.4 12.9 0.00 0.03 0.03 84 1026.4
20260831223506 13 259 3.2 9.7 0.00 0.03 0.03 86 1026.5
20260831223006 13 290 3.2 12.9 0.00 0.03 0.03 87 1026.5
20260831222507 12 309 4.8 12.9 0.00 0.03 0.03 88 1026.5
20260831222005 12 269 4.8 9.7 0.00 0.03 0.03 89 1026.5
20260831221508 12 329 4.8 9.7 0.00 0.03 0.03 90 1026.6
20260831221004 12 328 3.2 8.0 0.00 0.03 0.03 91 1026.6
20260831220504 11 319 4.8 8.0 0.00 0.03 0.03 92 1026.6
20260831220004 11 315 3.2 6.4 0.00 0.03 0.03 93 1026.6
20260831215504 11 322 3.2 6.4 0.00 0.03 0.03 93 1026.6
20260831215008 11 319 3.2 6.4 0.00 0.03 0.03 94 1026.6
20260831214503 10 307 3.2 8.0 0.00 0.03 0.03 95 1026.6
20260831214003 10 296 3.2 8.0 0.00 0.03 0.03 95 1026.5
20260831213503 10 306 1.6 4.8 0.00 0.03 0.03 95 1026.4
20260831213004 10 317 3.2 4.8 0.00 0.03 0.03 95 1026.4
20260831212502 10 285 1.6 4.8 0.00 0.03 0.03 95 1026.5
20260831212001 10 289 0.0 1.6 0.00 0.03 0.03 95 1026.4
20260831211501 9 289 0.0 4.8 0.00 0.03 0.03 95 1026.4
20260831211003 9 300 1.6 4.8 0.00 0.03 0.03 95 1026.4
20260831210501 9 283 1.6 4.8 0.00 0.03 0.03 95 1026.3
20260831205600 9 275 1.6 4.8 0.00 0.03 0.03 95 1026.2
20260831205059 9 271 1.6 6.4 0.00 0.03 0.03 95 1026.2
20260831204601 9 263 1.6 6.4 0.00 0.03 0.03 95 1026.2
20260831204059 9 287 3.2 4.8 0.00 0.03 0.03 95 1026.2
20260831203558 9 277 1.6 6.4 0.00 0.03 0.03 94 1026.2
20260831203105 10 275 1.6 8.0 0.00 0.03 0.03 94 1026.1
20260831202558 10 259 3.2 8.0 0.00 0.03 0.03 94 1026.1
20260831202055 10 289 3.2 8.0 0.00 0.03 0.03 95 1026.0
20260831201554 10 294 1.6 6.4 0.00 0.03 0.03 94 1026.0
20260831201054 10 317 0.0 0.0 0.00 0.03 0.03 94 1026.0
20260831200553 10 317 0.0 0.0 0.00 0.03 0.03 94 1026.0
20260831200056 10 317 0.0 0.0 0.00 0.03 0.03 94 1026.0
20260831195550 10 317 0.0 0.0 0.00 0.03 0.03 94 1025.9
20260831195051 10 317 0.0 0.0 0.00 0.03 0.03 94 1026.0
20260831194553 10 317 0.0 0.0 0.00 0.03 0.03 94 1025.9
20260831194049 10 317 0.0 0.0 0.00 0.03 0.03 94 1025.8
20260831193547 11 317 0.0 0.0 0.00 0.03 0.03 93 1025.8
20260831193047 11 317 0.0 0.0 0.00 0.03 0.03 93 1025.7
20260831192545 11 317 0.0 0.0 0.00 0.03 0.03 94 1025.7
20260831192048 11 317 0.0 0.0 0.00 0.03 0.03 94 1025.7
20260831191544 11 317 0.0 0.0 0.00 0.03 0.03 94 1025.7
20260831191044 11 317 0.0 1.6 0.00 0.03 0.03 94 1025.7
20260831190544 11 315 0.0 6.4 0.00 0.03 0.03 94 1025.7
20260831185543 11 322 0.0 4.8 0.00 0.03 0.03 94 1025.7
20260831185043 11 321 0.0 6.4 0.00 0.03 0.03 94 1025.7
20260831184542 11 316 1.6 6.4 0.00 0.03 0.03 94 1025.7
20260831184042 11 305 1.6 6.4 0.00 0.03 0.03 94 1025.8
20260831183542 11 298 1.6 4.8 0.00 0.03 0.03 94 1025.7
20260831183042 11 319 0.0 4.8 0.00 0.03 0.03 93 1025.8
20260831182541 11 350 0.0 3.2 0.00 0.03 0.03 93 1025.8
20260831182041 11 323 0.0 3.2 0.00 0.03 0.03 94 1025.7
20260831181541 11 323 0.0 3.2 0.00 0.03 0.03 93 1025.8
20260831181040 11 290 0.0 3.2 0.00 0.03 0.03 93 1025.8
20260831180049 11 290 0.0 3.2 0.00 0.03 0.03 93 1025.8
20260831175547 11 290 0.0 3.2 0.00 0.05 0.03 93 1025.8
20260831175046 11 290 0.0 3.2 0.03 0.05 0.03 93 1025.8
20260831174547 11 286 0.0 4.8 0.03 0.05 0.03 93 1025.8
20260831174046 11 286 1.6 4.8 0.03 0.05 0.03 93 1025.8
20260831173548 11 288 0.0 3.2 0.03 0.05 0.03 92 1025.8
20260831173046 12 288 0.0 4.8 0.03 0.05 0.03 92 1025.8
20260831172544 12 288 0.0 4.8 0.03 0.05 0.03 92 1025.8
20260831172047 12 287 1.6 4.8 0.03 0.05 0.03 92 1025.9
20260831171543 12 287 0.0 4.8 0.03 0.05 0.03 92 1025.9
20260831171042 12 287 0.0 3.2 0.03 0.05 0.03 92 1025.9
20260831170541 12 287 0.0 4.8 0.03 0.05 0.03 92 1025.9
20260831170040 12 287 0.0 4.8 0.03 0.05 0.03 92 1025.9
20260831165540 12 305 0.0 0.0 0.03 0.05 0.03 92 1025.9
20260831165038 12 298 0.0 0.0 0.00 0.03 0.00 91 1026.0
20260831164554 12 285 0.0 3.2 0.00 0.03 0.00 91 1026.0
20260831164039 12 285 0.0 3.2 0.00 0.03 0.00 91 1026.1
20260831163536 12 289 0.0 4.8 0.00 0.03 0.00 91 1026.3
20260831163040 12 298 1.6 4.8 0.00 0.03 0.00 91 1026.3
20260831162534 13 300 1.6 4.8 0.00 0.03 0.00 91 1026.4
20260831162035 13 288 0.0 3.2 0.00 0.03 0.00 91 1026.6
20260831161534 13 291 0.0 3.2 0.00 0.03 0.00 91 1026.6